OPS 4682 DEB, 17722

Orbit data source: Space-Track

OPS 4682 DEB, 17722 is space debris in LEO originally from a launch on Sat, 03 Apr 1965 UTC launched from the Air Force Western Test Range (AFWTR). Debris objects in space refer to the collection of defunct objects orbiting the Earth. Examples of debris include non-operational satellites, rocket bodies, and fragments generated from explosions, collisions, or faulty payload assembly.

Loading next visibility...
Identifier
17722, 1965-027W
Orbit
LEO
Country
Flag of USUS
Related business
Manufacturer
Unknown
Mission
Spacecraft
Bus & Motor
Unknown
Mass
Unknown
Launch date (UTC)
1965-04-03 (61 years ago)
Launch vehicle
Unknown
Launch site
Air Force Western Test Range (AFWTR)
Object type
Payload
Rocket body
Debris
Shape & HBR
Unknown shape, 0.1 m
Radar Cross Section
Small (<0.1 m²)

Expand to show TLE details & history
Last TLE update: 1 day ago

TLE from 1 day ago
0 OPS 4682 DEB
1 17722U 65027W   25339.98012170 -.00000091  00000-0 -33254-3 0  9991
2 17722  90.2336 350.1985 0004092  36.3367 353.3026 12.98908982919274
Epoch: 2025-12-05T23:31Z
TLE epoch observation values (Epoch: 2025-12-05T23:31:22.514Z)
Latitude
29.67845°
Longitude
-77.7922°
Altitude
1,266.965 km
Speed
7.226 km/s
True Right ascension
23h 20m 15s
True Declination
29° 32' 26"
Sunlit
Object was in daylight at epoch
Visualization orbit readout
Latitude
Unknown
Longitude
Unknown
Altitude
Unknown
Speed
Unknown
Apparent Right ascension
Unknown
Apparent Declination
Unknown
Sunlit
N/A
Visualization observer readout
Local Sidereal Time
07:39:49
Azimuth
Unknown
Elevation
Unknown
Doppler factor
Unknown
Orbital elements
Apogee altitude
1,266.62 km
Perigee altitude
1,260.366 km
Semi-major axis
7,641.63 km
Eccentricity
0.00041
Inclination
90.2336°
RAAN
350.1985°
Arg. of periapsis
36.3367°
True anomaly
353.29713°
Mean anomaly
353.3026°
Eccentric anomaly
353.29986°
Mean motion
3.24911 °/min
Orbital period
110.8 mins
BSTAR
-0.00033254
Loading maneuver chart data...
Computing Atmospheric mass density...
Loading historical data...
Loading historical data...
Loading historical data...
Loading historical data...
Loading historical data...
Loading historical data...
Loading historical data...

Documentation

Showing up to 5 results
|